Miscellaneous Local Product
Issued by NWS North Platte, NE

Home | Current Version | Previous Version | Graphics & Text | Print | Product List | Glossary On
Versions: 1 2 3 4 5 6 7 8 9 10 11 12 13 14 15 16 17 18 19 20 21 22 23 24 25 26 27 28 29 30 31 32 33 34 35 36 37 38 39 40 41 42 43 44 45 46 47 48 49 50
130
AXUS43 KLBF 062210
MISLBF


WESTERN AND NORTH CENTRAL NEBRASKA HOURLY WEATHER ROUNDUP
NATIONAL WEATHER SERVICE NORTH PLATTE NE
400 PM CST SAT FEB 06 2016

NOTE: "FAIR" INDICATES FEW OR NO CLOUDS BELOW 12,000 FEET WITH NO
SIGNIFICANT WEATHER AND/OR OBSTRUCTIONS TO VISIBILITY.

NOTE: STATIONS NOT REPORTING VARIABLES SUCH AS SKY/WEATHER OR
PRESSURE ARE PROVIDED BY THE NEBRASKA DEPARTMENT OF
ROADS...RAWS...AND APRS NETWORKS...AND ARE NOT UNDER
NATIONAL WEATHER SERVICE QUALITY CONTROL.

...OBSERVATIONS IN AND NEAR THE EASTERN PANHANDLE OF NEBRASKA...

CITY           SKY/WX    TMP DP  RH WIND       PRES   REMARKS
PINE RIDGE     CLOUDY    46  26  45 W12       29.93S
CHADRON        CLOUDY    48  29  47 W9        29.92F
ALLIANCE       CLOUDY    37  28  70 SW14      29.94F WCI  28
SIDNEY         CLOUDY    41  28  60 W14       30.03F
CRESCENT LAKE    N/A     41  26  55 W10G21      N/A
$$

...OBSERVATIONS IN NORTH CENTRAL NEBRASKA...

CITY           SKY/WX    TMP DP  RH WIND       PRES   REMARKS
VALENTINE      CLOUDY    45  27  49 W20       29.91S
THEDFORD       CLOUDY    44  30  58 SW9       29.94F
AINSWORTH      CLOUDY    44  28  53 SW14G20   29.90S
O`NEILL        MOSUNNY   42  30  63 SW9G16    29.91F
ORD            CLOUDY    39  27  62 SW16      29.97F WCI  30
BROKEN BOW     MOSUNNY   38  27  64 SW14      29.97F WCI  30
VALENTINE NWR    N/A     44  26  48 W9G16       N/A
BUTTE            N/A     48  33  57 S9          N/A
HALSEY           N/A     45  26  47 SW7G16      N/A
CHAMBERS         N/A     42  26  53 SW5G12      N/A
EWING            N/A     37  30  75 S9          N/A  WCI  30
$$

...OBSERVATIONS IN SOUTHWEST NEBRASKA AND FAR NORTHEAST COLORADO...

CITY           SKY/WX    TMP DP  RH WIND       PRES   REMARKS
WRAY           FAIR      42  26  53 SW7       30.08F
HOLYOKE        FAIR      41  28  60 W9        30.06F
IMPERIAL       CLOUDY    37  24  59 W9        30.07F WCI  30
OGALLALA       CLOUDY    32  23  68 W15       30.04F WCI  22
NORTH PLATTE   CLOUDY    38  25  59 W10       30.03F WCI  31
MCCOOK         CLOUDY    37  25  61 SW8       30.09F WCI  31
LEXINGTON      CLOUDY    39  25  56 SW10      30.06S WCI  32
PAXTON           N/A     35  28  76 W3          N/A
STAPLETON        N/A     38  29  71 CALM        N/A
GOTHENBURG       N/A     44  23  43 SW7         N/A
CALLAWAY         N/A     37  29  73 W16         N/A  WCI  27
$$

...OBSERVATIONS IN CENTRAL LINCOLN COUNTY AREA...

CITY           SKY/WX    TMP DP  RH WIND       PRES   REMARKS
N.P. AIRPORT   CLOUDY    38  25  59 W10       30.03F WCI  31
N.P. DOWNTOWN    N/A     38  27  65 MISG        N/A
N.P. SOUTHEAST   N/A     38  27  64 MISG        N/A
N.P. HILLCREST   N/A     36  27  68 SW12        N/A  WCI  28
$$

...SOME OBSERVATIONS FROM AROUND THE REGION...

CITY           SKY/WX    TMP DP  RH WIND       PRES   REMARKS
DENVER         CLOUDY    45  23  42 SW12      30.09F
LARAMIE        SUNNY     37  19  48 SW22G31   30.12F WCI  26
CHEYENNE       CLOUDY    41  22  46 SW7       30.08F
SCOTTSBLUFF    CLOUDY    43  25  49 W15G28    30.01F
RAPID CITY     CLOUDY    50  34  54 NE6       29.83F
BISMARCK       CLOUDY    53  28  38 N7G21     29.69F
PIERRE         CLOUDY    49  29  46 W15       29.79S
WINNER         FAIR      45  30  55 SW10      29.86R
SIOUX FALLS    CLOUDY    35  25  66 SW13      29.90F WCI  26
OMAHA          CLOUDY    41  27  57 S14       30.08F
GRAND ISLAND   CLOUDY    34  24  67 SW20      30.05F WCI  23
KANSAS CITY    MOSUNNY   48  30  49 SW12      30.19F
WICHITA        MOSUNNY   51  24  34 SW8       30.23F
OKLAHOMA CITY  MOSUNNY   52  26  36 VRB7      30.30F
LIBERAL        SUNNY     55  16  21 SW15      30.20F
HAYS           SUNNY     43  25  49 SW13      30.16F
GOODLAND       CLOUDY    41  23  48 SW17      30.11F
$$




USA.gov is the U.S. government's official web portal to all federal, state and local government web resources and services.